Location: Moscow
(55.7500°N, 37.5830°E)
Time: 10:38:32
(UTC+03:00)

Transit 4A - Pass Details

Date: 02 December 2021
Orbit: 863 x 981 km, 66.8° (Epoch: 23 January)

Event Time Altitude Azimuth Distance (km) Brightness Sun altitude
Exits shadow 06:01:30 26° 237° (WSW) 1,808 9.0 -20.4°
Drops below altitude 10° 06:05:50 10° 195° (SSW) 2,713 10.3 -19.8°
Sets 06:08:48 0° 183° (S) 3,665 11.1 -19.4°
